Location: Newark
(42.9277°N, 71.8621°W)
Time: 20:53:59
(UTC+00:00)

Vanguard 1 - Visible Passes

Search period start: 25 May 2020 00:00
Search period end: 04 June 2020 00:00
Orbit: 649 x 3834 km, 34.3° (Epoch: 23 May)

Date Brightness Start Highest point End Pass type
(mag) Time Alt. Az. Time Alt. Az. Time Alt. Az.
25 May 13.8 07:58:47 10° SE 08:04:22 12° ESE 08:10:29 10° ESE visible
26 May 13.7 08:14:07 10° SSE 08:24:22 18° SE 08:36:34 10° E visible
27 May 13.5 08:32:01 10° S 08:44:26 24° SE 09:00:05 10° E visible
30 May 13.4 07:16:50 10° SSE 07:24:46 16° ESE 07:34:28 10° E visible
31 May 13.2 07:34:33 10° S 07:44:43 22° SE 07:58:18 10° E visible
01 Jun 13.1 07:53:23 10° S 08:04:48 29° SE 08:21:01 10° E visible
02 Jun 13.0 08:12:48 10° SSW 08:25:02 36° SE 08:43:11 10° E visible
03 Jun 13.1 06:20:33 10° SE 06:25:42 13° ESE 06:31:50 10° E visible
03 Jun 12.9 08:32:38 10° SSW 08:45:27 43° SE 09:05:03 10° E visible
